• In Hungary
  • List of Countries
  • For 7 days
  • Water Temperature
  • Satellite Maps
  • Weather Map
  • News
  • Weather Widgets
  • user-avatar
    Login

    Hourly Weather Cullera

    Today, 25 September, Tuesday

    Time Temperature Precipitation Wind Pressure Humidity
    00:00 +26°C° 0 mm 3 mps 762 mmHg 83%
    01:00 +25°C° 0 mm 4 mps 762 mmHg 86%
    02:00 +25°C° 0 mm 5 mps 762 mmHg 89%
    03:00 +25°C° 0 mm 5 mps 762 mmHg 91%
    04:00 +24°C° 0.1 mm 6 mps 763 mmHg 88%
    05:00 +23°C° 0.1 mm 6 mps 763 mmHg 85%
    06:00 +23°C° 0 mm 5 mps 763 mmHg 79%
    07:00 +23°C° 0.2 mm 5 mps 763 mmHg 78%
    08:00 +24°C° 0.2 mm 6 mps 763 mmHg 77%
    09:00 +24°C° 0.2 mm 6 mps 764 mmHg 76%
    10:00 +24°C° 0.2 mm 6 mps 764 mmHg 76%
    11:00 +26°C° 0.2 mm 6 mps 764 mmHg 76%
    12:00 +26°C° 0.2 mm 6 mps 764 mmHg 77%
    13:00 +26°C° 0.1 mm 6 mps 764 mmHg 79%
    14:00 +24°C° 0.1 mm 6 mps 764 mmHg 82%
    15:00 +24°C° 0.1 mm 6 mps 763 mmHg 84%
    16:00 +23°C° 0 mm 6 mps 764 mmHg 85%
    17:00 +23°C° 0 mm 6 mps 764 mmHg 87%
    18:00 +23°C° 0 mm 5 mps 764 mmHg 88%
    19:00 +23°C° 0 mm 6 mps 764 mmHg 88%
    20:00 +22°C° 0 mm 6 mps 765 mmHg 88%
    21:00 +22°C° 0 mm 6 mps 765 mmHg 88%
    22:00 +22°C° 0 mm 6 mps 765 mmHg 88%
    23:00 +22°C° 0 mm 6 mps 765 mmHg 88%

    Tomorrow, 26 September, Wednesday

    Time Temperature Precipitation Wind Pressure Humidity
    00:00 +22°C° 0 mm 6 mps 765 mmHg 88%
    01:00 +22°C° 0.1 mm 6 mps 765 mmHg 87%
    02:00 +22°C° 0.1 mm 6 mps 765 mmHg 86%
    03:00 +22°C° 0.1 mm 6 mps 765 mmHg 85%
    04:00 +21°C° 0.4 mm 6 mps 765 mmHg 85%
    05:00 +21°C° 0.4 mm 5 mps 765 mmHg 86%
    06:00 +21°C° 0.4 mm 5 mps 765 mmHg 86%
    07:00 +22°C° 0.6 mm 6 mps 765 mmHg 87%
    08:00 +22°C° 0.6 mm 6 mps 766 mmHg 87%
    09:00 +23°C° 0.6 mm 7 mps 766 mmHg 87%
    10:00 +23°C° 0.8 mm 7 mps 766 mmHg 84%
    11:00 +24°C° 0.8 mm 8 mps 766 mmHg 80%
    12:00 +26°C° 0.8 mm 8 mps 766 mmHg 77%
    13:00 +26°C° 1.8 mm 8 mps 766 mmHg 78%
    14:00 +26°C° 1.8 mm 8 mps 766 mmHg 79%
    15:00 +26°C° 1.8 mm 8 mps 766 mmHg 81%
    16:00 +24°C° 1.6 mm 8 mps 766 mmHg 84%
    17:00 +24°C° 1.6 mm 7 mps 766 mmHg 87%
    18:00 +23°C° 1.6 mm 7 mps 767 mmHg 90%
    19:00 +23°C° 0.9 mm 7 mps 767 mmHg 90%
    20:00 +23°C° 0.9 mm 6 mps 768 mmHg 91%
    21:00 +23°C° 0.9 mm 6 mps 768 mmHg 92%
    22:00 +23°C° 0.7 mm 6 mps 768 mmHg 92%
    23:00 +23°C° 0.7 mm 6 mps 768 mmHg 92%

    Day after tomorrow, 27 September, Thursday

    Time Temperature Precipitation Wind Pressure Humidity
    00:00 +22°C° 0.7 mm 6 mps 768 mmHg 92%
    01:00 +22°C° 0.5 mm 6 mps 768 mmHg 92%
    02:00 +22°C° 0.5 mm 5 mps 767 mmHg 93%
    03:00 +22°C° 0.5 mm 5 mps 767 mmHg 93%
    04:00 +22°C° 0.5 mm 6 mps 767 mmHg 93%
    05:00 +22°C° 0.5 mm 6 mps 767 mmHg 93%
    06:00 +22°C° 0.5 mm 6 mps 767 mmHg 92%
    07:00 +22°C° 0.1 mm 6 mps 767 mmHg 90%
    08:00 +23°C° 0.1 mm 6 mps 768 mmHg 87%
    09:00 +23°C° 0.1 mm 6 mps 768 mmHg 84%
    10:00 +25°C° 0 mm 5 mps 768 mmHg 79%
    11:00 +26°C° 0 mm 5 mps 767 mmHg 74%
    12:00 +26°C° 0 mm 5 mps 767 mmHg 68%
    13:00 +27°C° 0 mm 5 mps 767 mmHg 63%
    14:00 +27°C° 0 mm 5 mps 766 mmHg 58%
    15:00 +28°C° 0 mm 4 mps 766 mmHg 53%
    16:00 +27°C° 0 mm 4 mps 766 mmHg 58%
    17:00 +25°C° 0 mm 3 mps 765 mmHg 64%
    18:00 +24°C° 0 mm 3 mps 765 mmHg 69%
    19:00 +23°C° 0 mm 2 mps 765 mmHg 73%
    20:00 +21°C° 0 mm 2 mps 766 mmHg 77%
    21:00 +22°C° 0 mm 1 mps 766 mmHg 81%
    22:00 +21°C° 0 mm 1 mps 765 mmHg 82%
    23:00 +20°C° 0 mm 2 mps 765 mmHg 82%

    28 September, Friday

    Time Temperature Precipitation Wind Pressure Humidity
    00:00 +19°C° 0 mm 2 mps 764 mmHg 82%
    01:00 +19°C° 0 mm 2 mps 764 mmHg 81%
    02:00 +19°C° 0 mm 2 mps 764 mmHg 80%
    03:00 +19°C° 0 mm 2 mps 763 mmHg 79%
    04:00 +19°C° 0 mm 2 mps 763 mmHg 78%
    05:00 +18°C° 0 mm 2 mps 763 mmHg 77%
    06:00 +18°C° 0 mm 2 mps 763 mmHg 76%
    07:00 +20°C° 0 mm 2 mps 763 mmHg 68%
    08:00 +24°C° 0 mm 2 mps 763 mmHg 59%
    09:00 +26°C° 0 mm 2 mps 763 mmHg 50%
    10:00 +27°C° 0 mm 2 mps 762 mmHg 42%
    11:00 +28°C° 0 mm 2 mps 762 mmHg 35%
    12:00 +30°C° 0 mm 2 mps 762 mmHg 27%
    13:00 +30°C° 0 mm 2 mps 761 mmHg 25%
    14:00 +31°C° 0 mm 2 mps 760 mmHg 23%
    15:00 +31°C° 0 mm 3 mps 759 mmHg 22%
    16:00 +30°C° 0 mm 3 mps 759 mmHg 27%
    17:00 +28°C° 0 mm 3 mps 759 mmHg 33%
    18:00 +26°C° 0 mm 3 mps 759 mmHg 39%
    19:00 +25°C° 0 mm 3 mps 759 mmHg 44%
    20:00 +25°C° 0 mm 3 mps 759 mmHg 50%
    21:00 +24°C° 0 mm 3 mps 760 mmHg 56%
    22:00 +23°C° 0 mm 2 mps 759 mmHg 57%
    23:00 +23°C° 0 mm 2 mps 759 mmHg 59%

    29 September, Saturday

    Time Temperature Precipitation Wind Pressure Humidity
    00:00 +23°C° 0 mm 2 mps 759 mmHg 61%
    01:00 +23°C° 0 mm 2 mps 759 mmHg 61%
    02:00 +21°C° 0 mm 2 mps 758 mmHg 61%
    03:00 +21°C° 0 mm 2 mps 758 mmHg 61%
    04:00 +22°C° 0 mm 1 mps 758 mmHg 60%
    05:00 +22°C° 0 mm 1 mps 758 mmHg 59%
    06:00 +21°C° 0 mm 1 mps 758 mmHg 58%
    07:00 +24°C° 0 mm 1 mps 758 mmHg 49%
    08:00 +26°C° 0 mm 1 mps 759 mmHg 40%
    09:00 +28°C° 0 mm 1 mps 759 mmHg 31%
    10:00 +29°C° 0 mm 2 mps 759 mmHg 27%
    11:00 +31°C° 0 mm 2 mps 758 mmHg 23%
    12:00 +33°C° 0 mm 3 mps 758 mmHg 18%
    13:00 +33°C° 0 mm 3 mps 758 mmHg 19%
    14:00 +33°C° 0 mm 4 mps 758 mmHg 20%
    15:00 +33°C° 0 mm 4 mps 757 mmHg 21%
    16:00 +30°C° 0 mm 4 mps 757 mmHg 28%
    17:00 +29°C° 0 mm 4 mps 758 mmHg 36%
    18:00 +27°C° 0 mm 4 mps 758 mmHg 43%
    19:00 +26°C° 0 mm 4 mps 758 mmHg 49%
    20:00 +25°C° 0 mm 3 mps 758 mmHg 55%
    21:00 +24°C° 0 mm 3 mps 759 mmHg 61%
    22:00 +24°C° 0 mm 3 mps 759 mmHg 62%
    23:00 +23°C° 0 mm 2 mps 758 mmHg 63%

    30 September, Sunday

    Time Temperature Precipitation Wind Pressure Humidity
    00:00 +23°C° 0 mm 2 mps 758 mmHg 64%
    01:00 +23°C° 0 mm 2 mps 758 mmHg 63%
    02:00 +21°C° 0 mm 2 mps 758 mmHg 62%
    03:00 +21°C° 0 mm 2 mps 758 mmHg 60%
    04:00 +21°C° 0 mm 2 mps 758 mmHg 59%
    05:00 +21°C° 0 mm 2 mps 758 mmHg 58%
    06:00 +21°C° 0 mm 2 mps 758 mmHg 57%
    07:00 +24°C° 0 mm 2 mps 758 mmHg 50%
    08:00 +26°C° 0 mm 2 mps 758 mmHg 43%
    09:00 +29°C° 0 mm 2 mps 758 mmHg 36%
    10:00 +30°C° 0 mm 2 mps 758 mmHg 32%
    11:00 +31°C° 0 mm 2 mps 758 mmHg 29%
    12:00 +33°C° 0 mm 3 mps 758 mmHg 26%
    13:00 +34°C° 0 mm 3 mps 758 mmHg 26%
    14:00 +34°C° 0 mm 4 mps 757 mmHg 26%
    15:00 +34°C° 0 mm 4 mps 757 mmHg 26%
    16:00 +33°C° 0 mm 4 mps 757 mmHg 32%
    17:00 +30°C° 0 mm 5 mps 757 mmHg 38%
    18:00 +28°C° 0 mm 5 mps 757 mmHg 44%
    19:00 +27°C° 0 mm 4 mps 758 mmHg 51%
    20:00 +26°C° 0 mm 4 mps 758 mmHg 57%
    21:00 +25°C° 0 mm 3 mps 758 mmHg 63%
    22:00 +25°C° 0 mm 3 mps 758 mmHg 63%
    23:00 +25°C° 0 mm 2 mps 758 mmHg 63%
    Show more